sat.trackr.live / text

‹ back to catalog

STARLINK-31866

NORAD 59668 · 2024-084Q

PAYLOAD ACTIVE UNKNOWN

§ Identity

Operator
Country
US
Launch date
2024-05-06
Launch site
AFETR
Launch vehicle
Mass (kg)
RCS (m²)

Purposes: comms

External: N2YO · Heavens-Above · Gunter

§ Orbital elements

Epoch: 2026-05-24T21:33:47.706912Z

Period
94.27 min
Inclination
43.0020°
Eccentricity
0.0001738
Mean motion
15.27586384 rev/d
Perigee alt
481.8 km
Apogee alt
484.2 km
Semi-major
6,861.2 km
B*
1.2151e-4
RAAN
324.0111°
Arg perigee
265.5779°
Mean anomaly
94.4874°
Rev number
11,611

§ Raw data

STARLINK-318661 59668U 24084Q   26144.89846883  .00003083  00000+0  12151-3 0  99992 59668  43.0020 324.0111 0001738 265.5779  94.4874 15.27586384116112

JSON: /api/v1/satellites/59668 · /tle

For live sub-satellite position, see the globe view (requires WebGL).

§ Visibility from observer

Set your observer location to see the next 7 days of passes ≥ 10°. The values pass through the URL so the page stays shareable.

No JS? Fill the form by hand. The geolocation button needs JavaScript.